Location: ??
(35.5090°N, 139.6783°E)
Time: 03:02:22
(UTC+00:00)

Cosmos 2084 Rocket - Pass Details

Date: 08 November 2025
Orbit: 549 x 566 km, 62.8° (Epoch: 09 December)

Event Time Altitude Azimuth Distance (km) Brightness Sun altitude
Rises 08:56:14 0° 201° (SSW) 2,717 7.3 -15.8°
Reaches altitude 10° 08:58:27 10° 197° (SSW) 1,830 6.3 -16.3°
Maximum altitude 09:02:29 56° 119° (ESE) 663 3.4 -17.1°
Enters shadow 09:04:00 34° 58° (ENE) 924 4.0 -17.4°
